contact:dominique.lefevre@mio.osupytheas.fr, maurice.libes@osupytheas.fr, didier.mallarino@osupytheas.fr
Project:EMSO http://www.emso-fr.org/EMSO-France
Depth: 2436.0 m
Title:EMSO Ligure Ouest : Data MII capteur MICROCAT
DateTime_Computer,Latitude,Longitude,Temperature,Conductivity,Pressure,DateTime_Instrument
DateTime_Computer,Latitude,Longitude,degC,S m-1,dbar,DateTime_Instrument
2020-08-24T00:01:15Z,42.805,6.029,13.2976,4.59981,2470.133,2020-8-24T02:02:05Z
2020-08-24T00:04:18Z,42.805,6.029,13.2976,4.59978,2470.194,2020-8-24T02:05:08Z
2020-08-24T00:07:21Z,42.805,6.029,13.2974,4.59982,2470.124,2020-8-24T02:08:11Z
2020-08-24T00:10:25Z,42.805,6.029,13.2976,4.59978,2470.11,2020-8-24T02:11:14Z
2020-08-24T00:13:28Z,42.805,6.029,13.2979,4.59979,2470.18,2020-8-24T02:14:18Z
2020-08-24T00:16:31Z,42.805,6.029,13.2975,4.59980,2470.124,2020-8-24T02:17:21Z
2020-08-24T00:19:34Z,42.805,6.029,13.2974,4.59981,2470.156,2020-8-24T02:20:24Z
2020-08-24T00:22:37Z,42.805,6.029,13.2977,4.59980,2470.133,2020-8-24T02:23:27Z
2020-08-24T00:25:41Z,42.805,6.029,13.2974,4.59981,2470.171,2020-8-24T02:26:31Z
2020-08-24T00:28:44Z,42.805,6.029,13.2979,4.59983,2470.147,2020-8-24T02:29:34Z
2020-08-24T00:31:47Z,42.805,6.029,13.2976,4.59978,2470.156,2020-8-24T02:32:37Z
2020-08-24T00:34:51Z,42.805,6.029,13.2976,4.59978,2470.133,2020-8-24T02:35:40Z
2020-08-24T00:37:54Z,42.805,6.029,13.2973,4.59981,2470.133,2020-8-24T02:38:44Z
2020-08-24T00:40:57Z,42.805,6.029,13.2975,4.59979,2470.124,2020-8-24T02:41:47Z
2020-08-24T00:44:00Z,42.805,6.029,13.2974,4.59978,2470.147,2020-8-24T02:44:50Z
2020-08-24T00:47:03Z,42.805,6.029,13.2976,4.59979,2470.156,2020-8-24T02:47:53Z
2020-08-24T00:50:07Z,42.805,6.029,13.2978,4.59993,2470.133,2020-8-24T02:50:57Z
2020-08-24T00:53:10Z,42.805,6.029,13.2977,4.59983,2470.147,2020-8-24T02:54:00Z
2020-08-24T00:56:13Z,42.805,6.029,13.2978,4.59996,2470.147,2020-8-24T02:57:03Z
2020-08-24T00:59:17Z,42.805,6.029,13.2975,4.59980,2470.147,2020-8-24T03:00:06Z
2020-08-24T01:02:20Z,42.805,6.029,13.2976,4.59981,2470.133,2020-8-24T03:03:10Z
2020-08-24T01:05:23Z,42.805,6.029,13.2980,4.59977,2470.11,2020-8-24T03:06:13Z
2020-08-24T01:08:27Z,42.805,6.029,13.2976,4.59979,2470.087,2020-8-24T03:09:16Z
2020-08-24T01:11:30Z,42.805,6.029,13.2975,4.59981,2470.087,2020-8-24T03:12:20Z
2020-08-24T01:14:33Z,42.805,6.029,13.2973,4.59979,2470.11,2020-8-24T03:15:23Z
2020-08-24T01:17:36Z,42.805,6.029,13.2976,4.59980,2470.11,2020-8-24T03:18:26Z
2020-08-24T01:20:39Z,42.805,6.029,13.2976,4.59985,2470.11,2020-8-24T03:21:29Z
2020-08-24T01:23:43Z,42.805,6.029,13.2974,4.59982,2470.11,2020-8-24T03:24:33Z
2020-08-24T01:26:46Z,42.805,6.029,13.2977,4.59980,2470.087,2020-8-24T03:27:36Z
2020-08-24T01:29:49Z,42.805,6.029,13.2974,4.59983,2470.11,2020-8-24T03:30:39Z
2020-08-24T01:32:52Z,42.805,6.029,13.2978,4.59979,2470.11,2020-8-24T03:33:42Z
2020-08-24T01:35:55Z,42.805,6.029,13.2973,4.59981,2470.124,2020-8-24T03:36:45Z
2020-08-24T01:38:59Z,42.805,6.029,13.2974,4.59980,2470.087,2020-8-24T03:39:49Z
2020-08-24T01:42:02Z,42.805,6.029,13.2974,4.59981,2470.087,2020-8-24T03:42:52Z
2020-08-24T01:45:05Z,42.805,6.029,13.2979,4.59987,2470.077,2020-8-24T03:45:55Z
2020-08-24T01:48:08Z,42.805,6.029,13.2983,4.59986,2470.063,2020-8-24T03:48:58Z
2020-08-24T01:51:11Z,42.805,6.029,13.2985,4.59981,2470.087,2020-8-24T03:52:01Z
2020-08-24T01:54:15Z,42.805,6.029,13.2976,4.59978,2470.063,2020-8-24T03:55:05Z
2020-08-24T01:57:18Z,42.805,6.029,13.2974,4.59979,2470.053,2020-8-24T03:58:08Z
2020-08-24T02:00:21Z,42.805,6.029,13.2981,4.59978,2470.087,2020-8-24T04:01:11Z
2020-08-24T02:03:24Z,42.805,6.029,13.2983,4.59978,2470.04,2020-8-24T04:04:14Z
2020-08-24T02:06:28Z,42.805,6.029,13.2984,4.59981,2470.1,2020-8-24T04:07:18Z
2020-08-24T02:09:31Z,42.805,6.029,13.2984,4.59981,2470.087,2020-8-24T04:10:21Z
2020-08-24T02:12:34Z,42.805,6.029,13.2982,4.59981,2470.077,2020-8-24T04:13:24Z
2020-08-24T02:15:37Z,42.805,6.029,13.2983,4.59981,2470.1,2020-8-24T04:16:27Z
2020-08-24T02:18:41Z,42.805,6.029,13.2978,4.59983,2470.04,2020-8-24T04:19:30Z
2020-08-24T02:21:44Z,42.805,6.029,13.2976,4.59982,2470.063,2020-8-24T04:22:34Z
2020-08-24T02:24:47Z,42.805,6.029,13.2977,4.59981,2470.04,2020-8-24T04:25:37Z
2020-08-24T02:27:50Z,42.805,6.029,13.2982,4.59981,2470.053,2020-8-24T04:28:40Z
2020-08-24T02:30:54Z,42.805,6.029,13.2976,4.59979,2470.077,2020-8-24T04:31:44Z
2020-08-24T02:33:57Z,42.805,6.029,13.2979,4.59978,2470.1,2020-8-24T04:34:47Z
2020-08-24T02:37:00Z,42.805,6.029,13.2974,4.59981,2470.04,2020-8-24T04:37:50Z
2020-08-24T02:40:03Z,42.805,6.029,13.2975,4.59982,2470.053,2020-8-24T04:40:53Z
2020-08-24T02:43:07Z,42.805,6.029,13.2975,4.59984,2470.053,2020-8-24T04:43:56Z
2020-08-24T02:46:10Z,42.805,6.029,13.2974,4.59982,2470.04,2020-8-24T04:47:00Z
2020-08-24T02:49:13Z,42.805,6.029,13.2976,4.59986,2470.04,2020-8-24T04:50:03Z
2020-08-24T02:52:16Z,42.805,6.029,13.2977,4.59983,2470.03,2020-8-24T04:53:06Z
2020-08-24T02:55:20Z,42.805,6.029,13.2975,4.59981,2470.03,2020-8-24T04:56:10Z
2020-08-24T02:58:23Z,42.805,6.029,13.2974,4.59981,2470.017,2020-8-24T04:59:13Z
2020-08-24T03:01:27Z,42.805,6.029,13.2974,4.59981,2470.053,2020-8-24T05:02:16Z
2020-08-24T03:04:30Z,42.805,6.029,13.2976,4.59988,2470.017,2020-8-24T05:05:20Z
2020-08-24T03:07:33Z,42.805,6.029,13.2974,4.59993,2470.017,2020-8-24T05:08:23Z
2020-08-24T03:10:36Z,42.805,6.029,13.2976,4.59996,2469.993,2020-8-24T05:11:26Z
2020-08-24T03:13:40Z,42.805,6.029,13.2979,4.59990,2470.017,2020-8-24T05:14:30Z
2020-08-24T03:16:43Z,42.805,6.029,13.2976,4.59989,2470.063,2020-8-24T05:17:33Z
2020-08-24T03:19:46Z,42.805,6.029,13.2977,4.59990,2470.053,2020-8-24T05:20:36Z
2020-08-24T03:22:49Z,42.805,6.029,13.2974,4.59991,2470.04,2020-8-24T05:23:39Z
2020-08-24T03:25:53Z,42.805,6.029,13.2976,4.59987,2470.017,2020-8-24T05:26:42Z
2020-08-24T03:28:56Z,42.805,6.029,13.2975,4.59996,2470.053,2020-8-24T05:29:46Z
2020-08-24T03:31:59Z,42.805,6.029,13.2976,4.59985,2470.053,2020-8-24T05:32:49Z
2020-08-24T03:35:02Z,42.805,6.029,13.2976,4.59992,2470.053,2020-8-24T05:35:52Z
2020-08-24T03:38:05Z,42.805,6.029,13.2974,4.59987,2470.017,2020-8-24T05:38:55Z
2020-08-24T03:41:09Z,42.805,6.029,13.2974,4.59985,2470.053,2020-8-24T05:41:59Z
2020-08-24T03:44:12Z,42.805,6.029,13.2975,4.59991,2470.017,2020-8-24T05:45:02Z
2020-08-24T03:47:16Z,42.805,6.029,13.2974,4.59989,2470.017,2020-8-24T05:48:05Z
2020-08-24T03:50:19Z,42.805,6.029,13.2975,4.59988,2470.03,2020-8-24T05:51:09Z
2020-08-24T03:53:22Z,42.805,6.029,13.2974,4.59987,2469.993,2020-8-24T05:54:12Z
2020-08-24T03:56:25Z,42.805,6.029,13.2974,4.59985,2470.017,2020-8-24T05:57:15Z
2020-08-24T03:59:28Z,42.805,6.029,13.2975,4.59988,2470.04,2020-8-24T06:00:18Z
2020-08-24T04:02:32Z,42.805,6.029,13.2979,4.59985,2469.984,2020-8-24T06:03:22Z
2020-08-24T04:05:35Z,42.805,6.029,13.2979,4.59987,2470.017,2020-8-24T06:06:25Z
2020-08-24T04:08:38Z,42.805,6.029,13.2979,4.59983,2469.993,2020-8-24T06:09:28Z
2020-08-24T04:11:42Z,42.805,6.029,13.2975,4.59985,2469.993,2020-8-24T06:12:31Z
2020-08-24T04:14:45Z,42.805,6.029,13.2978,4.59987,2469.956,2020-8-24T06:15:35Z
2020-08-24T04:17:48Z,42.805,6.029,13.2974,4.59981,2469.97,2020-8-24T06:18:38Z
2020-08-24T04:20:51Z,42.805,6.029,13.2976,4.59983,2469.97,2020-8-24T06:21:41Z
2020-08-24T04:23:54Z,42.805,6.029,13.2976,4.59979,2470.007,2020-8-24T06:24:44Z
2020-08-24T04:26:58Z,42.805,6.029,13.2975,4.59978,2470.017,2020-8-24T06:27:48Z
2020-08-24T04:30:01Z,42.805,6.029,13.2977,4.59980,2470.017,2020-8-24T06:30:51Z
2020-08-24T04:33:04Z,42.805,6.029,13.2978,4.59987,2470.017,2020-8-24T06:33:54Z
2020-08-24T04:36:07Z,42.805,6.029,13.2972,4.59978,2470.007,2020-8-24T06:36:57Z
2020-08-24T04:39:11Z,42.805,6.029,13.2974,4.59978,2469.993,2020-8-24T06:40:01Z
2020-08-24T04:42:14Z,42.805,6.029,13.2971,4.59978,2470.03,2020-8-24T06:43:04Z
2020-08-24T04:45:17Z,42.805,6.029,13.2975,4.59978,2470.017,2020-8-24T06:46:07Z
2020-08-24T04:48:21Z,42.805,6.029,13.2975,4.59987,2470.017,2020-8-24T06:49:10Z
2020-08-24T04:51:24Z,42.805,6.029,13.2978,4.59978,2470.017,2020-8-24T06:52:14Z
2020-08-24T04:54:27Z,42.805,6.029,13.2974,4.59984,2469.984,2020-8-24T06:55:17Z
2020-08-24T04:57:30Z,42.805,6.029,13.2978,4.59979,2469.993,2020-8-24T06:58:20Z
2020-08-24T05:00:34Z,42.805,6.029,13.2973,4.59979,2470.007,2020-8-24T07:01:23Z
2020-08-24T05:03:37Z,42.805,6.029,13.2975,4.59978,2470.04,2020-8-24T07:04:27Z
2020-08-24T05:06:40Z,42.805,6.029,13.2974,4.59978,2470.007,2020-8-24T07:07:30Z
2020-08-24T05:09:43Z,42.805,6.029,13.2976,4.59981,2470.03,2020-8-24T07:10:33Z
2020-08-24T05:12:46Z,42.805,6.029,13.2976,4.59979,2470.007,2020-8-24T07:13:36Z
2020-08-24T05:15:50Z,42.805,6.029,13.2976,4.59978,2469.97,2020-8-24T07:16:40Z
2020-08-24T05:18:53Z,42.805,6.029,13.2978,4.59978,2469.97,2020-8-24T07:19:43Z
2020-08-24T05:21:56Z,42.805,6.029,13.2973,4.59978,2469.993,2020-8-24T07:22:46Z
2020-08-24T05:25:00Z,42.805,6.029,13.2974,4.59978,2469.993,2020-8-24T07:25:49Z
2020-08-24T05:28:03Z,42.805,6.029,13.2976,4.59978,2469.96,2020-8-24T07:28:53Z
2020-08-24T05:31:06Z,42.805,6.029,13.2975,4.59978,2469.97,2020-8-24T07:31:56Z
2020-08-24T05:34:09Z,42.805,6.029,13.2976,4.59978,2469.96,2020-8-24T07:34:59Z
2020-08-24T05:37:13Z,42.805,6.029,13.2974,4.59978,2469.97,2020-8-24T07:38:03Z
2020-08-24T05:40:16Z,42.805,6.029,13.2974,4.59978,2470.017,2020-8-24T07:41:06Z
2020-08-24T05:43:19Z,42.805,6.029,13.2976,4.59979,2469.984,2020-8-24T07:44:09Z
2020-08-24T05:46:23Z,42.805,6.029,13.2974,4.59979,2469.97,2020-8-24T07:47:13Z
2020-08-24T05:49:26Z,42.805,6.029,13.2974,4.59978,2469.947,2020-8-24T07:50:16Z
2020-08-24T05:52:29Z,42.805,6.029,13.2974,4.59976,2470.007,2020-8-24T07:53:19Z
2020-08-24T05:55:32Z,42.805,6.029,13.2974,4.59976,2469.97,2020-8-24T07:56:22Z
2020-08-24T05:58:35Z,42.805,6.029,13.2974,4.59981,2469.96,2020-8-24T07:59:25Z
2020-08-24T06:01:39Z,42.805,6.029,13.2976,4.59984,2469.984,2020-8-24T08:02:29Z
2020-08-24T06:04:42Z,42.805,6.029,13.2975,4.59980,2469.97,2020-8-24T08:05:32Z
2020-08-24T06:07:45Z,42.805,6.029,13.2975,4.59982,2469.993,2020-8-24T08:08:35Z
2020-08-24T06:10:49Z,42.805,6.029,13.2978,4.59976,2469.96,2020-8-24T08:11:39Z
2020-08-24T06:13:52Z,42.805,6.029,13.2976,4.59982,2469.96,2020-8-24T08:14:42Z
2020-08-24T06:16:55Z,42.805,6.029,13.2975,4.59981,2469.993,2020-8-24T08:17:45Z
2020-08-24T06:19:58Z,42.805,6.029,13.2971,4.59978,2469.993,2020-8-24T08:20:48Z
2020-08-24T06:23:02Z,42.805,6.029,13.2975,4.59977,2469.993,2020-8-24T08:23:51Z
2020-08-24T06:26:05Z,42.805,6.029,13.2976,4.59976,2469.96,2020-8-24T08:26:55Z
2020-08-24T06:29:08Z,42.805,6.029,13.2978,4.59980,2469.993,2020-8-24T08:29:58Z
2020-08-24T06:32:11Z,42.805,6.029,13.2974,4.59978,2469.984,2020-8-24T08:33:01Z
2020-08-24T06:35:15Z,42.805,6.029,13.2977,4.59977,2469.97,2020-8-24T08:36:04Z
2020-08-24T06:38:18Z,42.805,6.029,13.2974,4.59978,2470.007,2020-8-24T08:39:08Z
2020-08-24T06:41:21Z,42.805,6.029,13.2976,4.59976,2470.007,2020-8-24T08:42:11Z
2020-08-24T06:44:25Z,42.805,6.029,13.2976,4.59979,2470.007,2020-8-24T08:45:15Z
2020-08-24T06:47:28Z,42.805,6.029,13.2976,4.59977,2469.984,2020-8-24T08:48:18Z
2020-08-24T06:50:31Z,42.805,6.029,13.2977,4.59978,2470.007,2020-8-24T08:51:21Z
2020-08-24T06:53:34Z,42.805,6.029,13.2974,4.59978,2470.007,2020-8-24T08:54:24Z
2020-08-24T06:56:38Z,42.805,6.029,13.2974,4.59977,2469.993,2020-8-24T08:57:28Z
2020-08-24T06:59:41Z,42.805,6.029,13.2974,4.59986,2469.97,2020-8-24T09:00:31Z
2020-08-24T07:02:44Z,42.805,6.029,13.2976,4.59977,2470.007,2020-8-24T09:03:34Z
2020-08-24T07:05:47Z,42.805,6.029,13.2976,4.59978,2469.993,2020-8-24T09:06:37Z
2020-08-24T07:08:51Z,42.805,6.029,13.2975,4.59981,2470.007,2020-8-24T09:09:40Z
2020-08-24T07:11:54Z,42.805,6.029,13.2974,4.59981,2469.993,2020-8-24T09:12:44Z
2020-08-24T07:14:57Z,42.805,6.029,13.2978,4.59976,2470.03,2020-8-24T09:15:47Z
2020-08-24T07:18:00Z,42.805,6.029,13.2975,4.59976,2470.03,2020-8-24T09:18:50Z
2020-08-24T07:21:03Z,42.805,6.029,13.2974,4.59980,2469.97,2020-8-24T09:21:53Z
2020-08-24T07:24:07Z,42.805,6.029,13.2977,4.59977,2469.993,2020-8-24T09:24:57Z
2020-08-24T07:27:10Z,42.805,6.029,13.2979,4.59978,2469.993,2020-8-24T09:28:00Z
2020-08-24T07:30:13Z,42.805,6.029,13.2976,4.59979,2470.007,2020-8-24T09:31:03Z
2020-08-24T07:33:16Z,42.805,6.029,13.2979,4.59983,2469.993,2020-8-24T09:34:06Z
2020-08-24T07:36:20Z,42.805,6.029,13.2974,4.59981,2470.053,2020-8-24T09:37:09Z
2020-08-24T07:39:23Z,42.805,6.029,13.2981,4.59980,2470.053,2020-8-24T09:40:13Z
2020-08-24T07:42:26Z,42.805,6.029,13.2979,4.59978,2470.03,2020-8-24T09:43:16Z
2020-08-24T07:45:29Z,42.805,6.029,13.2975,4.59976,2470.04,2020-8-24T09:46:19Z
2020-08-24T07:48:32Z,42.805,6.029,13.2977,4.59976,2470.03,2020-8-24T09:49:22Z
2020-08-24T07:51:36Z,42.805,6.029,13.2976,4.59978,2470.063,2020-8-24T09:52:26Z
2020-08-24T07:54:39Z,42.805,6.029,13.2977,4.59976,2470.03,2020-8-24T09:55:29Z
2020-08-24T07:57:42Z,42.805,6.029,13.2978,4.59976,2470.03,2020-8-24T09:58:32Z
2020-08-24T08:00:46Z,42.805,6.029,13.2973,4.59978,2470.03,2020-8-24T10:01:36Z
2020-08-24T08:03:49Z,42.805,6.029,13.2977,4.59983,2470.063,2020-8-24T10:04:39Z
2020-08-24T08:06:52Z,42.805,6.029,13.2974,4.59978,2470.03,2020-8-24T10:07:42Z
2020-08-24T08:09:55Z,42.805,6.029,13.2975,4.59978,2470.063,2020-8-24T10:10:45Z
2020-08-24T08:12:59Z,42.805,6.029,13.2975,4.59978,2470.063,2020-8-24T10:13:49Z
2020-08-24T08:16:02Z,42.805,6.029,13.2981,4.59979,2470.063,2020-8-24T10:16:52Z
2020-08-24T08:19:05Z,42.805,6.029,13.2976,4.59978,2470.063,2020-8-24T10:19:55Z
2020-08-24T08:22:08Z,42.805,6.029,13.2973,4.59978,2470.04,2020-8-24T10:22:58Z
2020-08-24T08:25:12Z,42.805,6.029,13.2978,4.59980,2470.063,2020-8-24T10:26:02Z
2020-08-24T08:28:15Z,42.805,6.029,13.2976,4.59980,2470.1,2020-8-24T10:29:05Z
2020-08-24T08:31:18Z,42.805,6.029,13.2977,4.59976,2470.063,2020-8-24T10:32:08Z
2020-08-24T08:34:21Z,42.805,6.029,13.2976,4.59978,2470.063,2020-8-24T10:35:11Z
2020-08-24T08:37:25Z,42.805,6.029,13.2968,4.59976,2470.087,2020-8-24T10:38:15Z
2020-08-24T08:40:28Z,42.805,6.029,13.2976,4.59977,2470.087,2020-8-24T10:41:18Z
2020-08-24T08:43:31Z,42.805,6.029,13.2974,4.59977,2470.077,2020-8-24T10:44:21Z
2020-08-24T08:46:34Z,42.805,6.029,13.2976,4.59978,2470.087,2020-8-24T10:47:24Z
2020-08-24T08:49:38Z,42.805,6.029,13.2976,4.59976,2470.1,2020-8-24T10:50:28Z
2020-08-24T08:52:41Z,42.805,6.029,13.2974,4.59977,2470.11,2020-8-24T10:53:31Z
2020-08-24T08:55:44Z,42.805,6.029,13.2979,4.59977,2470.11,2020-8-24T10:56:34Z
2020-08-24T08:58:47Z,42.805,6.029,13.2976,4.59978,2470.133,2020-8-24T10:59:37Z
2020-08-24T09:01:51Z,42.805,6.029,13.2978,4.59978,2470.11,2020-8-24T11:02:41Z
2020-08-24T09:04:54Z,42.805,6.029,13.2976,4.59976,2470.133,2020-8-24T11:05:44Z
2020-08-24T09:07:57Z,42.805,6.029,13.2976,4.59985,2470.11,2020-8-24T11:08:47Z
2020-08-24T09:11:00Z,42.805,6.029,13.2979,4.59999,2470.11,2020-8-24T11:11:50Z
2020-08-24T09:14:04Z,42.805,6.029,13.2976,4.59980,2470.11,2020-8-24T11:14:53Z
2020-08-24T09:17:07Z,42.805,6.029,13.2973,4.59981,2470.073,2020-8-24T11:17:57Z
2020-08-24T09:20:10Z,42.805,6.029,13.2979,4.59984,2470.073,2020-8-24T11:21:00Z
2020-08-24T09:23:13Z,42.805,6.029,13.2978,4.59978,2470.11,2020-8-24T11:24:03Z
2020-08-24T09:26:16Z,42.805,6.029,13.2974,4.59976,2470.147,2020-8-24T11:27:06Z
2020-08-24T09:29:20Z,42.805,6.029,13.2974,4.59976,2470.133,2020-8-24T11:30:10Z
2020-08-24T09:32:23Z,42.805,6.029,13.2974,4.59979,2470.133,2020-8-24T11:33:13Z
2020-08-24T09:35:27Z,42.805,6.029,13.2974,4.59977,2470.124,2020-8-24T11:36:16Z
2020-08-24T09:38:30Z,42.805,6.029,13.2974,4.59976,2470.11,2020-8-24T11:39:20Z
2020-08-24T09:41:33Z,42.805,6.029,13.2976,4.59978,2470.11,2020-8-24T11:42:23Z
2020-08-24T09:44:36Z,42.805,6.029,13.2975,4.59979,2470.133,2020-8-24T11:45:26Z
2020-08-24T09:47:40Z,42.805,6.029,13.2976,4.59978,2470.133,2020-8-24T11:48:30Z
2020-08-24T09:50:43Z,42.805,6.029,13.2975,4.59980,2470.147,2020-8-24T11:51:33Z
2020-08-24T09:53:46Z,42.805,6.029,13.2974,4.59981,2470.124,2020-8-24T11:54:36Z
2020-08-24T09:56:49Z,42.805,6.029,13.2976,4.59979,2470.133,2020-8-24T11:57:39Z
2020-08-24T09:59:53Z,42.805,6.029,13.2974,4.59978,2470.133,2020-8-24T12:00:43Z
2020-08-24T10:02:56Z,42.805,6.029,13.2979,4.59976,2470.156,2020-8-24T12:03:46Z
2020-08-24T10:05:59Z,42.805,6.029,13.2977,4.59976,2470.147,2020-8-24T12:06:49Z
2020-08-24T10:09:02Z,42.805,6.029,13.2976,4.59980,2470.147,2020-8-24T12:09:52Z
2020-08-24T10:12:06Z,42.805,6.029,13.2975,4.59982,2470.147,2020-8-24T12:12:56Z
2020-08-24T10:15:09Z,42.805,6.029,13.2977,4.59979,2470.147,2020-8-24T12:15:59Z
2020-08-24T10:18:12Z,42.805,6.029,13.2974,4.59977,2470.156,2020-8-24T12:19:02Z
2020-08-24T10:21:15Z,42.805,6.029,13.2974,4.59979,2470.156,2020-8-24T12:22:05Z
2020-08-24T10:24:19Z,42.805,6.029,13.2975,4.59981,2470.156,2020-8-24T12:25:09Z
2020-08-24T10:27:22Z,42.805,6.029,13.2975,4.59976,2470.133,2020-8-24T12:28:12Z
2020-08-24T10:30:25Z,42.805,6.029,13.2977,4.59976,2470.171,2020-8-24T12:31:15Z
2020-08-24T10:33:28Z,42.805,6.029,13.2976,4.59978,2470.171,2020-8-24T12:34:18Z
2020-08-24T10:36:32Z,42.805,6.029,13.2974,4.59977,2470.147,2020-8-24T12:37:21Z
2020-08-24T10:39:35Z,42.805,6.029,13.2975,4.59978,2470.124,2020-8-24T12:40:25Z
2020-08-24T10:42:38Z,42.805,6.029,13.2974,4.59978,2470.133,2020-8-24T12:43:28Z
2020-08-24T10:45:42Z,42.805,6.029,13.2975,4.59978,2470.18,2020-8-24T12:46:32Z
2020-08-24T10:48:45Z,42.805,6.029,13.2977,4.59978,2470.133,2020-8-24T12:49:35Z
2020-08-24T10:51:48Z,42.805,6.029,13.2973,4.59978,2470.133,2020-8-24T12:52:38Z
2020-08-24T10:54:52Z,42.805,6.029,13.2974,4.59978,2470.156,2020-8-24T12:55:42Z
2020-08-24T10:57:55Z,42.805,6.029,13.2974,4.59978,2470.18,2020-8-24T12:58:45Z
2020-08-24T11:00:58Z,42.805,6.029,13.2974,4.59978,2470.11,2020-8-24T13:01:48Z
2020-08-24T11:04:02Z,42.805,6.029,13.2970,4.59976,2470.133,2020-8-24T13:04:51Z
2020-08-24T11:07:05Z,42.805,6.029,13.2977,4.59978,2470.133,2020-8-24T13:07:55Z
2020-08-24T11:10:08Z,42.805,6.029,13.2974,4.59978,2470.133,2020-8-24T13:10:58Z
2020-08-24T11:13:11Z,42.805,6.029,13.2972,4.59979,2470.133,2020-8-24T13:14:01Z
2020-08-24T11:16:15Z,42.805,6.029,13.2976,4.59980,2470.147,2020-8-24T13:17:05Z
2020-08-24T11:19:18Z,42.805,6.029,13.2972,4.59983,2470.171,2020-8-24T13:20:08Z
2020-08-24T11:22:21Z,42.805,6.029,13.2974,4.59978,2470.18,2020-8-24T13:23:11Z
2020-08-24T11:25:24Z,42.805,6.029,13.2975,4.59980,2470.147,2020-8-24T13:26:14Z
2020-08-24T11:28:28Z,42.805,6.029,13.2971,4.59979,2470.124,2020-8-24T13:29:18Z
2020-08-24T11:31:31Z,42.805,6.029,13.2972,4.59979,2470.156,2020-8-24T13:32:21Z
2020-08-24T11:34:34Z,42.805,6.029,13.2974,4.59979,2470.156,2020-8-24T13:35:24Z
2020-08-24T11:37:37Z,42.805,6.029,13.2978,4.59979,2470.171,2020-8-24T13:38:27Z
2020-08-24T11:40:41Z,42.805,6.029,13.2975,4.59981,2470.156,2020-8-24T13:41:31Z
2020-08-24T11:43:44Z,42.805,6.029,13.2974,4.59988,2470.147,2020-8-24T13:44:34Z
2020-08-24T11:46:47Z,42.805,6.029,13.2977,4.59981,2470.147,2020-8-24T13:47:37Z
2020-08-24T11:49:50Z,42.805,6.029,13.2974,4.59976,2470.171,2020-8-24T13:50:40Z
2020-08-24T11:52:54Z,42.805,6.029,13.2974,4.59980,2470.156,2020-8-24T13:53:44Z
2020-08-24T11:55:57Z,42.805,6.029,13.2971,4.59978,2470.133,2020-8-24T13:56:47Z
2020-08-24T11:59:00Z,42.805,6.029,13.2976,4.59981,2470.133,2020-8-24T13:59:50Z
2020-08-24T12:02:03Z,42.805,6.029,13.2978,4.59979,2470.133,2020-8-24T14:02:53Z
2020-08-24T12:05:06Z,42.805,6.029,13.2972,4.59978,2470.133,2020-8-24T14:05:56Z
2020-08-24T12:08:10Z,42.805,6.029,13.2975,4.59980,2470.156,2020-8-24T14:09:00Z
2020-08-24T12:11:13Z,42.805,6.029,13.2978,4.59982,2470.156,2020-8-24T14:12:03Z
2020-08-24T12:14:16Z,42.805,6.029,13.2972,4.59979,2470.124,2020-8-24T14:15:06Z
2020-08-24T12:17:19Z,42.805,6.029,13.2975,4.59978,2470.133,2020-8-24T14:18:09Z
2020-08-24T12:20:23Z,42.805,6.029,13.2976,4.59978,2470.124,2020-8-24T14:21:13Z
2020-08-24T12:23:26Z,42.805,6.029,13.2977,4.59978,2470.124,2020-8-24T14:24:16Z
2020-08-24T12:26:29Z,42.805,6.029,13.2974,4.59978,2470.124,2020-8-24T14:27:19Z
2020-08-24T12:29:33Z,42.805,6.029,13.2972,4.59978,2470.133,2020-8-24T14:30:22Z
2020-08-24T12:32:36Z,42.805,6.029,13.2974,4.59978,2470.147,2020-8-24T14:33:26Z
2020-08-24T12:35:39Z,42.805,6.029,13.2974,4.59980,2470.133,2020-8-24T14:36:29Z
2020-08-24T12:38:43Z,42.805,6.029,13.2977,4.59978,2470.133,2020-8-24T14:39:32Z
2020-08-24T12:41:46Z,42.805,6.029,13.2979,4.59977,2470.11,2020-8-24T14:42:36Z
2020-08-24T12:44:49Z,42.805,6.029,13.2974,4.59978,2470.096,2020-8-24T14:45:39Z
2020-08-24T12:47:52Z,42.805,6.029,13.2973,4.59978,2470.124,2020-8-24T14:48:42Z
2020-08-24T12:50:55Z,42.805,6.029,13.2974,4.59978,2470.11,2020-8-24T14:51:45Z
2020-08-24T12:53:59Z,42.805,6.029,13.2977,4.59978,2470.133,2020-8-24T14:54:49Z
2020-08-24T12:57:02Z,42.805,6.029,13.2972,4.59976,2470.124,2020-8-24T14:57:52Z
2020-08-24T13:00:05Z,42.805,6.029,13.2974,4.59978,2470.087,2020-8-24T15:00:55Z
2020-08-24T13:03:09Z,42.805,6.029,13.2979,4.59978,2470.1,2020-8-24T15:03:58Z
2020-08-24T13:06:12Z,42.805,6.029,13.2974,4.59979,2470.087,2020-8-24T15:07:02Z
2020-08-24T13:09:15Z,42.805,6.029,13.2972,4.59979,2470.11,2020-8-24T15:10:05Z
2020-08-24T13:12:18Z,42.805,6.029,13.2976,4.59979,2470.11,2020-8-24T15:13:08Z
2020-08-24T13:15:22Z,42.805,6.029,13.2973,4.59981,2470.11,2020-8-24T15:16:12Z
2020-08-24T13:18:25Z,42.805,6.029,13.2972,4.59980,2470.1,2020-8-24T15:19:15Z
2020-08-24T13:21:28Z,42.805,6.029,13.2975,4.59983,2470.077,2020-8-24T15:22:18Z
2020-08-24T13:24:31Z,42.805,6.029,13.2973,4.59982,2470.063,2020-8-24T15:25:21Z
2020-08-24T13:27:35Z,42.805,6.029,13.2973,4.59981,2470.11,2020-8-24T15:28:24Z
2020-08-24T13:30:38Z,42.805,6.029,13.2973,4.59981,2470.087,2020-8-24T15:31:28Z
2020-08-24T13:33:41Z,42.805,6.029,13.2976,4.59981,2470.11,2020-8-24T15:34:31Z
2020-08-24T13:36:45Z,42.805,6.029,13.2975,4.59981,2470.087,2020-8-24T15:37:34Z
2020-08-24T13:39:48Z,42.805,6.029,13.2975,4.59981,2470.077,2020-8-24T15:40:38Z
2020-08-24T13:42:51Z,42.805,6.029,13.2974,4.59984,2470.11,2020-8-24T15:43:41Z
2020-08-24T13:45:54Z,42.805,6.029,13.2974,4.59981,2470.077,2020-8-24T15:46:44Z
2020-08-24T13:48:58Z,42.805,6.029,13.2974,4.59985,2470.1,2020-8-24T15:49:48Z
2020-08-24T13:52:01Z,42.805,6.029,13.2979,4.59989,2470.087,2020-8-24T15:52:51Z
2020-08-24T13:55:04Z,42.805,6.029,13.2983,4.59991,2470.087,2020-8-24T15:55:54Z
2020-08-24T13:58:07Z,42.805,6.029,13.2976,4.59986,2470.063,2020-8-24T15:58:57Z
2020-08-24T14:01:11Z,42.805,6.029,13.2976,4.59991,2470.063,2020-8-24T16:02:01Z
2020-08-24T14:04:14Z,42.805,6.029,13.2976,4.59983,2470.063,2020-8-24T16:05:04Z
2020-08-24T14:07:17Z,42.805,6.029,13.2990,4.59985,2470.077,2020-8-24T16:08:07Z
2020-08-24T14:10:21Z,42.805,6.029,13.2974,4.59991,2470.087,2020-8-24T16:11:11Z
2020-08-24T14:13:24Z,42.805,6.029,13.2974,4.59981,2470.063,2020-8-24T16:14:14Z
2020-08-24T14:16:27Z,42.805,6.029,13.2972,4.59984,2470.077,2020-8-24T16:17:17Z
2020-08-24T14:19:30Z,42.805,6.029,13.2989,4.59986,2470.087,2020-8-24T16:20:20Z
2020-08-24T14:22:34Z,42.805,6.029,13.2976,4.59987,2470.087,2020-8-24T16:23:24Z
2020-08-24T14:25:37Z,42.805,6.029,13.2978,4.59984,2470.063,2020-8-24T16:26:27Z
2020-08-24T14:28:40Z,42.805,6.029,13.2986,4.60011,2470.063,2020-8-24T16:29:30Z
2020-08-24T14:31:43Z,42.805,6.029,13.2991,4.60029,2470.049,2020-8-24T16:32:33Z
2020-08-24T14:34:47Z,42.805,6.029,13.2983,4.59991,2470.063,2020-8-24T16:35:37Z
2020-08-24T14:37:50Z,42.805,6.029,13.2977,4.59996,2470.063,2020-8-24T16:38:40Z
2020-08-24T14:40:53Z,42.805,6.029,13.2984,4.59987,2470.063,2020-8-24T16:41:43Z
2020-08-24T14:43:56Z,42.805,6.029,13.2995,4.59985,2470.063,2020-8-24T16:44:46Z
2020-08-24T14:47:00Z,42.805,6.029,13.2993,4.59993,2470.087,2020-8-24T16:47:50Z
2020-08-24T14:50:03Z,42.805,6.029,13.2976,4.59995,2470.04,2020-8-24T16:50:53Z
2020-08-24T14:53:06Z,42.805,6.029,13.2986,4.59989,2470.053,2020-8-24T16:53:56Z
2020-08-24T14:56:09Z,42.805,6.029,13.2995,4.60009,2470.053,2020-8-24T16:56:59Z
2020-08-24T14:59:13Z,42.805,6.029,13.2986,4.59997,2470.053,2020-8-24T17:00:03Z
2020-08-24T15:02:16Z,42.805,6.029,13.2976,4.59989,2470.077,2020-8-24T17:03:06Z
2020-08-24T15:05:19Z,42.805,6.029,13.2972,4.59998,2470.077,2020-8-24T17:06:09Z
2020-08-24T15:08:22Z,42.805,6.029,13.2993,4.60002,2470.053,2020-8-24T17:09:12Z
2020-08-24T15:11:25Z,42.805,6.029,13.2987,4.59997,2470.063,2020-8-24T17:12:15Z
2020-08-24T15:14:29Z,42.805,6.029,13.2979,4.60003,2470.04,2020-8-24T17:15:19Z